Location: Unspecified
(0.0000°N, 0.0000°E)
Time: 09:02:26
(UTC+00:00)

ARIANE 2 DEB - Pass Details

Date: 06 March 2026
Orbit: 598 x 35366 km, 8.4° (Epoch: 18 September)

Event Time Altitude Azimuth Distance (km) Brightness Sun altitude
Exits shadow 05:11:48 16° 283° (WNW) 7,353 ? -14.8°
Maximum altitude 07:53:53 85° 341° (NNW) 30,018 ? 25.5°
Drops below altitude 10° 14:51:15 10° 104° (ESE) 4,993 ? 49.7°
Sets 14:53:18 0° 101° (ESE) 5,374 ? 49.2°
